Ukiah, CA

9:40 AM PST on February 26, 2017 (GMT -0800)
Ukiah Municipal

Weather History for KUKI - July, 2014

Change the Weather History Date:

Thursday, July 10, 2014

  Actual Average Record
Temperature  
Mean Temperature 72 °F 74 °F  
Max Temperature 86 °F 91 °F 109 °F (1961)
Min Temperature 57 °F 56 °F 43 °F (1918)
Degree Days  
Heating Degree Days 0 0  
Month to date heating degree days 0  
Since 1 June heating degree days 32  
Since 1 July heating degree days 0  
Cooling Degree Days 6 9  
Month to date cooling degree days 79  
Year to date cooling degree days 243  
Since 1 June cooling degree days 191  
Growing Degree Days 20 (Base 50)    
Moisture  
Dew Point 54 °F    
Average Humidity 60    
Maximum Humidity 86    
Minimum Humidity 34    
Precipitation  
Precipitation 0.00 in 0.01 in 0.00 in (2017)
Month to date precipitation 0.00 0.04  
Year to date precipitation 16.63 23.42  
Since 1 July precipitation 0.00  
Snow  
Snow 0.00 in - - ()
Month to date snowfall 0.0  
Since 1 June snowfall 0.0  
Since 1 July snowfall 0.0  
Snow Depth -    
Sea Level Pressure  
Sea Level Pressure 29.87 in    
Wind  
Wind Speed 9 mph (SSE)    
Max Wind Speed 18 mph    
Max Gust Speed 26 mph    
Visibility 10 miles    
Events      
T = Trace of Precipitation, MM = Missing Value Source: NWS Daily Summary

Daily Weather History Graph

Daily Weather History Graph

Search for Another Location

Airport or City:

Trip Planner

Search our weather history database for the weather conditions in past years. The results will help you decide how hot, cold, wet, or windy it might be!

Date:

Astronomy

Jul. 10, 2014 Rise Set
Actual Time 5:55 AM PDT 8:40 PM PDT
Civil Twilight 5:24 AM PDT 9:11 PM PDT
Nautical Twilight 4:44 AM PDT 9:51 PM PDT
Astronomical Twilight 3:59 AM PDT 10:36 PM PDT
Moon 6:59 PM PDT (7/10) 4:11 AM PDT (7/10)
Length of Visible Light 15h 47m
Length of Day
14h 44m
Waxing Gibbous, 96% of the Moon is Illuminated
Jul 10
Waxing Gibbous
Jul 12
Full
Jul 18
Last Quarter
Jul 26
New
Aug 3
First Quarter

Hourly Weather History & Observations

Time (PDT) Temp. Heat Index Dew Point Humidity Pressure Visibility Wind Dir Wind Speed Gust Speed Precip Events Conditions
12:56 AM 64.9 °F - 55.0 °F 70% 29.85 in 10.0 mi South 8.1 mph - N/A   Clear
1:56 AM 63.0 °F - 54.0 °F 72% 29.85 in 10.0 mi South 4.6 mph - N/A   Clear
2:56 AM 60.1 °F - 53.1 °F 78% 29.85 in 10.0 mi South 8.1 mph - N/A   Clear
3:56 AM 57.0 °F - 53.1 °F 87% 29.86 in 10.0 mi South 6.9 mph - N/A   Clear
4:53 AM 57.2 °F - 53.6 °F 88% 29.89 in 10.0 mi SSE 5.8 mph - N/A   Partly Cloudy
4:56 AM 57.0 °F - 53.1 °F 87% 29.87 in 10.0 mi SE 4.6 mph - N/A   Scattered Clouds
5:07 AM 57.0 °F - 53.1 °F 87% 29.90 in 10.0 mi South 4.6 mph - N/A   Mostly Cloudy
5:56 AM 57.0 °F - 53.1 °F 87% 29.88 in 10.0 mi SSE 8.1 mph - N/A   Overcast
6:56 AM 57.0 °F - 53.1 °F 87% 29.90 in 10.0 mi SSE 8.1 mph - N/A   Overcast
7:56 AM 57.9 °F - 53.1 °F 84% 29.92 in 10.0 mi SE 8.1 mph - N/A   Overcast
8:56 AM 59.0 °F - 53.1 °F 81% 29.92 in 10.0 mi SE 5.8 mph - N/A   Overcast
9:10 AM 59.0 °F - 53.1 °F 81% 29.94 in 10.0 mi Variable 5.8 mph - N/A   Overcast
9:56 AM 62.1 °F - 53.1 °F 72% 29.91 in 10.0 mi SE 10.4 mph - N/A   Mostly Cloudy
10:07 AM 63.0 °F - 53.1 °F 70% 29.93 in 10.0 mi SSE 8.1 mph - N/A   Scattered Clouds
10:56 AM 66.9 °F - 54.0 °F 63% 29.90 in 10.0 mi SSE 8.1 mph 17.3 mph N/A   Clear
11:56 AM 72.0 °F - 55.0 °F 55% 29.88 in 10.0 mi Variable 6.9 mph - N/A   Clear
12:56 PM 77.0 °F - 55.9 °F 48% 29.86 in 10.0 mi SE 12.7 mph - N/A   Clear
1:56 PM 80.1 °F 80.2 °F 55.9 °F 43% 29.83 in 10.0 mi SE 15.0 mph - N/A   Clear
2:56 PM 82.9 °F 82.0 °F 55.0 °F 38% 29.81 in 10.0 mi SE 17.3 mph 23.0 mph N/A   Clear
3:56 PM 84.9 °F 83.3 °F 54.0 °F 34% 29.80 in 10.0 mi SSE 11.5 mph 26.5 mph N/A   Clear
4:56 PM 84.9 °F 83.6 °F 55.0 °F 36% 29.79 in 10.0 mi SE 12.7 mph 20.7 mph N/A   Clear
5:56 PM 84.0 °F 83.0 °F 55.9 °F 38% 29.79 in 10.0 mi SSE 12.7 mph - N/A   Clear
7:56 PM 75.0 °F - 55.9 °F 51% 29.83 in 10.0 mi South 10.4 mph 20.7 mph N/A   Clear
8:56 PM 70.0 °F - 55.0 °F 59% 29.86 in 10.0 mi SSE 15.0 mph 21.9 mph N/A   Clear
10:56 PM 64.0 °F - 54.0 °F 70% 29.89 in 10.0 mi SE 8.1 mph - N/A   Clear
11:56 PM 61.0 °F - 54.0 °F 78% 29.90 in 10.0 mi SE 10.4 mph - N/A   Clear